NOAA NWS Hourly Roundups by Site

Regional Weather Roundup for Fort Worth, TX

To Select Another Site Choose from List

Select Site:  

000
ASUS44 KFWD 180915
RWRFWD
NORTH TEXAS HOURLY WEATHER ROUNDUP
NATIONAL WEATHER SERVICE FORT WORTH TX
300 AM CST SUN NOV 18 2018

NOTE: "FAIR" INDICATES FEW OR NO CLOUDS BELOW 12,000 FEET WITH NO
SIGNIFICANT WEATHER AND/OR OBSTRUCTIONS TO VISIBILITY.

TXZ118-119-181000-
DALLAS/FORT WORTH METROPLEX

CITY           SKY/WX    TMP DP  RH WIND       PRES   REMARKS
DFW AIRPORT    CLOUDY    45  37  73 NW16      30.17R WCI  38
DALLAS LOVE    MOCLDY    47  39  74 NW15      30.18R
FTW MEACHAM    CLOUDY    43  37  79 NW17      30.20R WCI  35
DAL-EXECUTIVE  CLOUDY    45  38  76 NW16G22   30.17R WCI  38
FTW-ALLIANCE   CLOUDY    43  36  76 NW17      30.20R WCI  35
FTW-SPINKS     CLOUDY    45  38  76 NW16G22   30.21R WCI  37
ARLINGTON      MOCLDY    44  38  79 NW14G24   30.19R WCI  37
GRAND PRAIRIE  MOCLDY    45  37  73 W10G16    30.20R WCI  39
ADDISON        CLOUDY    46  38  73 NW10G18   30.19R
MESQUITE       CLOUDY    48  45  87 W12G18    30.16R
LANCASTER      CLOUDY    47  40  75 NW15G21   30.17R
$$

TXZ091>094-102>105-117-120-121-131>134-181000-
NORTH CENTRAL TEXAS

CITY           SKY/WX    TMP DP  RH WIND       PRES   REMARKS
SHRMAN/DENISON CLOUDY    45  38  76 N10       30.18R WCI  40
GAINESVILLE    CLOUDY    42  35  77 NW14      30.21R WCI  35
BOWIE          CLOUDY    38  34  87 NW16      30.22R WCI  28
BRIDGEPORT     CLOUDY    40  35  84 NW14G20   30.26R WCI  32
DECATUR        CLOUDY    39  35  84 NW13G23   30.21R WCI  32
DENTON         CLOUDY    43  36  76 NW12      30.19R WCI  37
MCKINNEY       CLOUDY    49  40  71 NW17      30.15R
BONHAM         CLOUDY    45  39  79 N9        30.15R
GREENVILLE     DRIZZLE   59  55  88 S6        30.12F
ROCKWALL       CLOUDY    53  51  90 W7        30.14R
TERRELL        CLOUDY    57  53  86 SW5       30.13R
WAXAHACHIE     CLOUDY    46  40  80 NW13G20   30.18R WCI  40
CLEBURNE       CLOUDY    43  39  87 NW16G23   30.21R WCI  35
GRANBURY       CLOUDY    45  38  76 NW10G17   30.23R WCI  39
$$

TXZ083>090-098>101-113>116-127>130-139>142-154-155-181000-
WESTERN NORTH TEXAS

CITY           SKY/WX    TMP DP  RH WIND       PRES   REMARKS
WICHITA FALLS  CLOUDY    37  33  85 N17       30.27R WCI  27
WF-KICKAPOO    CLOUDY    37  32  81 NW14      30.29R WCI  29
VERNON           N/A    N/A N/A N/A MISG        N/A
ABILENE        CLOUDY    38  34  85 N16       30.26R WCI  29
ABILENE-DYESS  CLOUDY    37  28  69 N17         N/A  WCI  27
GRAHAM         CLOUDY    38  35  89 NW10G17   30.25R WCI  30
CISCO          CLOUDY    39  34  81 NW17G24   30.23R WCI  30
EASTLAND       CLOUDY    38  34  83 N13       30.24R WCI  30
RANGER         CLOUDY    39  35  85 N14G20    30.24R WCI  31
MINERAL WELLS  CLOUDY    41  34  76 N14       30.23R WCI  33
STEPHENVILLE   CLOUDY    41  35  80 N16G25    30.24R WCI  33
COMANCHE       CLOUDY    41  37  85 N16       30.23R WCI  32
BROWNWOOD      CLOUDY    41  36  81 N12G21    30.23R WCI  34
COLEMAN        CLOUDY    40  34  79 N17G23    30.24R WCI  31
BRADY          CLOUDY    41  36  81 N13       30.22R WCI  34
$$

TXZ143>147-156>162-174-175-181000-
CENTRAL TEXAS

CITY           SKY/WX    TMP DP  RH WIND       PRES   REMARKS
WACO           CLOUDY    51  41  68 NW17G23   30.17R
WACO-MCGREGOR  CLOUDY    51  43  74 N16G23    30.17R
HILLSBORO      LGT RAIN  47  43  85 NW16G22   30.17R
CORSICANA      MOCLDY    57  53  86 W7        30.15R
MEXIA          FAIR      54  52  93 SE6       30.11F
HEARNE         CLOUDY    50  46  84 E3        30.13S
CAMERON        MOCLDY    57  53  86 CALM      30.12S
KILLEEN        CLOUDY    48  42  81 NW15      30.15R HAZE
KILLEEN-SKYLRK CLOUDY    51  45  79 NW10      30.16R
FORT HOOD      CLOUDY    50  43  77 NW15      30.12R
GATESVILLE     CLOUDY    48  39  71 NW12G18   30.20R
HAMILTON       CLOUDY    44  38  79 N15G24    30.20R WCI  37
LAMPASAS       CLOUDY    46  40  78 N5        30.17R
$$

TXZ095>097-106>112-122>126-135>138-148>153-164>167-181000-
EAST TEXAS

CITY           SKY/WX    TMP DP  RH WIND       PRES   REMARKS
PARIS          CLOUDY    53  50  89 NW3       30.14R
SULPHUR SPRNGS LGT RAIN  57  53  87 SW8       30.14R
MOUNT PLEASANT MOCLDY    53  49  86 SE3       30.13F
GILMER         CLOUDY    53  50  90 SE3       30.13S THUNDER
MINEOLA        FAIR      55  52  88 SE5       30.11S
TYLER          FAIR      56  50  80 S9        30.11F
LONGVIEW       FAIR      52  51  97 SE5       30.13S
MARSHALL       CLOUDY    47  46  93 CALM      30.17R
ATHENS         FAIR      55  52  88 S6        30.11S
PALESTINE      CLOUDY    57  53  86 SE5       30.14S
JACKSONVILLE   FAIR      55  51  86 S8        30.15S
HENDERSON      FAIR      53  49  87 MISG      30.15S
NACOGDOCHES      N/A     54  51  90 SE5       30.16S
LUFKIN         CLOUDY    54  51  90 SE5       30.15R
$$

SUPPLEMENTAL OBSERVATIONS (NWS FORT WORTH AREA)

CITY           SKY/WX    TMP DP  RH WIND       PRES   REMARKS
DENISON DAM      N/A     46  39  76 N13         N/A
POSSUM KINGDOM   N/A     39  34  81 NW12G21     N/A  WCI  32
GRANBURY         N/A     43  36  75 NW15G25     N/A  WCI  35
COMANCHE         N/A     39  34  81 N17G23      N/A  WCI  30
MCGREGOR         N/A     52  43  71 NW9G17      N/A
TEMPLE           N/A     57  54  88 NW3         N/A
LAKE LIMESTONE   N/A     54  52  94 SE2         N/A
ATHENS           N/A     57  52  82 S8          N/A
PALESTINE        N/A     57  52  82 SE3         N/A
$$

SUPPLEMENTAL OBSERVATIONS (NWS NORMAN AREA)

CITY           SKY/WX    TMP DP  RH WIND       PRES   REMARKS
GOODLETT         N/A     32  25  76 NW18G24   30.32R WCI  20
ODELL            N/A     33  29  82 N17       30.32R WCI  23
CROWELL          N/A     34  28  77 NW18      30.32R WCI  23
KNOX CITY        N/A     35  28  74 N15       30.32R WCI  25
SEYMOUR          N/A     35  29  79 NW18      30.31R WCI  24
MILLERS CREEK    N/A     36  30  80 N12G20      N/A  WCI  27
$$

SUPPLEMENTAL OBSERVATIONS (NWS SAN ANGELO AREA)

CITY           SKY/WX    TMP DP  RH WIND       PRES   REMARKS
WEINERT          N/A     36  29  76 NW10      30.31R WCI  28
HASKELL          N/A     35  29  80 N14G21    30.30S WCI  26
THROCKMORTON     N/A     36  31  82 NW9       30.30R WCI  29
STAMFORD         N/A     37  31  80 NW15      30.30S WCI  28
CLYDE            N/A     36  33  89 N16       30.27R WCI  26
HAMBY            N/A     37  32  81 N10         N/A  WCI  30
IVIE RESERVOIR   N/A     41  34  75 N12         N/A  WCI  34
COLORADO BEND    N/A     45  37  76 N6G16       N/A
$$

SUPPLEMENTAL OBSERVATIONS (NWS SHREVEPORT AREA)

CITY           SKY/WX    TMP DP  RH WIND       PRES   REMARKS
TEXARKANA        N/A     46  45  93 CALM        N/A
LINDEN           N/A     54  50  87 S1          N/A
CADDO LAKE       N/A     48  46  93 CALM        N/A
LUFKIN           N/A     54  50  87 MISG        N/A
N SABINE NF      N/A     48  46  93 MISG        N/A
$$

SUPPLEMENTAL OBSERVATIONS ARE A COLLECTION OF AUTOMATED INSTRUMENTS
THAT ARE MAINTAINED BY A VARIETY OF FEDERAL AND STATE AGENCIES.
CERTAIN ELEMENTS...SUCH AS HUMIDITY VALUES AND SUSTAINED WIND
SPEEDS...MAY BE APPROXIMATED.



 

View Past Reports for Fort Worth, TX.

Products Courtesy of NOAA-NWS
NWS Information Parsing Script by Ken True at Saratoga Weather - Script by SE Lincoln Weather.